Regional Weather Roundup
Issued by NWS

Home | Current Version | Previous Version | Graphics & Text | Print | Product List | Glossary On
Versions: 1 2 3 4 5 6 7 8 9 10 11 12 13 14 15 16 17 18 19 20 21 22 23 24 25 26 27
000
ASUS45 KBOI 211910
RWRID

IDAHO REGIONAL WEATHER ROUNDUP
NATIONAL WEATHER SERVICE BOISE ID
100 PM MDT THU SEP 21 2017

NOTE: "FAIR" INDICATES FEW OR NO CLOUDS BELOW 12000 FEET
WITH NO SIGNIFICANT WEATHER AND/OR OBSTRUCTIONS TO VISIBILITY

IDZ012-014-212000-
SOUTHWEST IDAHO


CITY           SKY/WX    TMP DP  RH WIND       PRES   REMARKS
BOISE          MOSUNNY   53  40  61 NW6       29.83F
CALDWELL       MOSUNNY   56  37  49 VRB6      29.84F
MOUNTAIN HOME  PTSUNNY   51  45  78 W8        29.82F
$$

IDZ016-017-212000-
SOUTHCENTRAL IDAHO


CITY           SKY/WX    TMP DP  RH WIND       PRES   REMARKS
BURLEY         LGT RAIN  44  40  85 SW3       29.82S
JEROME         CLOUDY    44  42  93 S6        29.83F
TWIN FALLS     LGT RAIN  43  42  97 W10       29.84R
$$

IDZ019>023-212000-
SOUTHEAST IDAHO


CITY           SKY/WX    TMP DP  RH WIND       PRES   REMARKS
IDAHO FALLS    LGT RAIN  40  37  89 S6        29.84F
POCATELLO      LGT RAIN  42  39  89 S7        29.84S
REXBURG        LGT RAIN  39  37  92 S6        29.83F WCI  35
$$

IDZ006-010-011-018-031-032-212000-
CENTRAL IDAHO MOUNTAINS


CITY           SKY/WX    TMP DP  RH WIND       PRES   REMARKS
MCCALL         CLOUDY    43  34  70 CALM      29.80S
HAILEY         CLOUDY    43  39  87 SE7       29.82S
STANLEY          N/A     37  32  82 W3        29.82S
SALMON         CLOUDY    47  34  60 N3        29.83F
CHALLIS        CLOUDY    47  32  56 N7        29.80F
$$

IDZ002-004-006-007-026-212000-
NORTHERN IDAHO


CITY           SKY/WX    TMP DP  RH WIND       PRES   REMARKS
LEWISTON       CLOUDY    54  45  71 NW3       29.88F
LOWELL           N/A     56  41  57 CALM      29.87F
COEUR D`ALENE  CLOUDY    44  40  85 NW6       29.90R
MULLAN PASS    SNOW      32  30  92 VRB3      29.84S VSB 1/4
$$




USA.gov is the U.S. government's official web portal to all federal, state and local government web resources and services.